Flag for Laos Weather past 2 weeks in Vientiane, Laos

Now
81 °F

Fog.


Feels Like: 86 °F
Forecast: 75 / 91 °F
Wind: 2 mph from Southwest

Location: Vientiane Airport

Current Time: Aug 28, 2015 at 3:14:32 AM

Latest Report: Aug 28, 2015 at 12:30 AM


Visibility: 2 mi

Pressure: 29.77 "Hg

Humidity: 84%

Dew point: 75 °F

Location of VientianeLocation

Historic Weather in Vientiane — Graph

°F

Vientiane temperature yesterday

Maximum temperature yesterday: 90 °F (at 2:00 PM)
Minimum temperature yesterday: 79 °F (at 6:00 AM)
Average temperature yesterday: 84 °F

Past Weeks' High & Low Weather Summary

 TemperatureHumidityPressure
High95 °F (Aug 16, 3:00 PM)94% (Aug 13, 6:00 AM)29.83 "Hg (Aug 13, 6:00 AM)
Low75 °F (Aug 21, 6:00 AM)53% (Aug 16, 3:00 PM)29.56 "Hg (Aug 24, 5:00 PM)
Average86 °F74%29.71 "Hg
* Reported Aug 13 6:00 AM — Aug 28 12:30 AM, Vientiane, Weather by CustomWeather, © 2015

Note: Actual official high and low records may vary slightly from our data, if they occured in-between our weather recording intervals... More about our weather records

Advertising

Vientiane weather history for previous 24 hours

 ConditionsComfort  
Time TempWeatherWind HumidityBarometerVisibility
12:30 AM
Fri, Aug 28
81 °FFog.2 mph84%29.77 "Hg2 mi
12:00 AM81 °FFog.2 mph84%29.77 "Hg2 mi
11:30 PM
Thu, Aug 27
81 °FFog.2 mph84%29.77 "Hg2 mi
11:00 PM81 °FFog.2 mph84%29.77 "Hg2 mi
10:30 PM82 °FFog.2 mph79%29.77 "Hg2 mi
10:00 PM82 °FFog.2 mph79%29.77 "Hg2 mi
9:30 PM82 °FFog.2 mph84%29.74 "Hg2 mi
9:00 PM82 °FFog.2 mph84%29.74 "Hg2 mi
8:30 PM84 °FFog.2 mph79%29.71 "Hg2 mi
8:00 PM84 °FFog.2 mph79%29.71 "Hg2 mi
7:30 PM86 °FFog.2 mph75%29.68 "Hg2 mi
7:00 PM86 °FFog.2 mph75%29.68 "Hg3 mi
6:30 PM88 °FPassing clouds.5 mph62%29.68 "HgN/A
6:00 PM88 °FScattered clouds.5 mph62%29.68 "HgN/A
5:30 PM90 °FScattered clouds.2 mph63%29.68 "HgN/A
4:30 PM90 °FScattered clouds.2 mph63%29.68 "HgN/A
4:00 PM90 °FScattered clouds.2 mph63%29.68 "HgN/A
3:30 PM90 °FScattered clouds.2 mph63%29.71 "HgN/A
3:00 PM90 °FScattered clouds.2 mph63%29.71 "HgN/A
2:30 PM90 °FScattered clouds.2 mph63%29.74 "HgN/A
2:00 PM90 °FScattered clouds.5 mph63%29.74 "HgN/A
1:30 PM88 °FScattered clouds.7 mph66%29.77 "HgN/A
1:00 PM88 °FScattered clouds.7 mph66%29.77 "HgN/A
12:30 PM84 °FScattered clouds.7 mph74%29.80 "HgN/A
12:00 PM84 °FScattered clouds.7 mph74%29.80 "HgN/A
11:30 AM84 °FScattered clouds.5 mph79%29.80 "HgN/A
11:00 AM84 °FScattered clouds.7 mph79%29.80 "HgN/A
10:30 AM81 °FBroken clouds.2 mph89%29.83 "Hg5 mi
10:00 AM81 °FBroken clouds.2 mph89%29.83 "Hg5 mi
9:30 AM79 °FPartly sunny.2 mph89%29.83 "Hg4 mi
9:00 AM79 °FPartly sunny.2 mph89%29.83 "Hg4 mi
8:30 AM79 °FPartly sunny.2 mph94%29.80 "Hg4 mi
8:00 AM79 °FPartly sunny.2 mph94%29.80 "Hg4 mi
7:30 AM79 °FRain. Partly sunny.5 mph94%29.74 "Hg2 mi
7:00 AM79 °FRain. Partly sunny.5 mph94%29.74 "Hg2 mi
6:30 AM79 °FRain. Partly sunny.2 mph94%29.74 "Hg2 mi
6:00 AM79 °FRain. Partly sunny.2 mph94%29.74 "Hg2 mi
Weather by CustomWeather, © 2015

See weather overviewHow to use our weather pages